| time (UTC) | temp F | wind direction | speed MPH | gust MPH | rain 1hr in | rain 24hr in | rain mn in | humidity % | barometer mb |
| 20260510054431 | 41 | 332 | 0.0 | 0.0 | 0.00 | 0.00 | 0.00 | 89 | 1024.2 |
| 20260510053926 | 41 | 336 | 0.0 | 0.0 | 0.00 | 0.00 | 0.00 | 87 | 1024.3 |
| 20260510053422 | 42 | 336 | 0.0 | 0.0 | 0.00 | 0.00 | 0.00 | 87 | 1024.3 |
| 20260510052918 | 42 | 336 | 0.0 | 0.0 | 0.00 | 0.00 | 0.00 | 87 | 1024.4 |
| 20260510052414 | 42 | 334 | 0.0 | 0.0 | 0.00 | 0.00 | 0.00 | 87 | 1024.5 |
| 20260510051911 | 42 | 340 | 0.0 | 0.0 | 0.00 | 0.00 | 0.00 | 86 | 1024.1 |
| 20260510051408 | 42 | 329 | 0.0 | 0.0 | 0.00 | 0.00 | 0.00 | 86 | 1024.3 |
| 20260510050904 | 42 | 330 | 0.0 | 0.0 | 0.00 | 0.00 | 0.00 | 87 | 1024.3 |
| 20260510050401 | 43 | 329 | 0.0 | 0.0 | 0.00 | 0.00 | 0.00 | 86 | 1024.2 |
| 20260510045857 | 43 | 329 | 0.0 | 0.0 | 0.00 | 0.00 | 0.00 | 85 | 1024.3 |
| 20260510045354 | 44 | 329 | 0.0 | 0.0 | 0.00 | 0.00 | 0.00 | 85 | 1024.2 |
| 20260510044851 | 44 | 329 | 0.0 | 0.0 | 0.00 | 0.00 | 0.00 | 84 | 1024.4 |
| 20260510044348 | 44 | 330 | 0.0 | 0.0 | 0.00 | 0.00 | 0.00 | 83 | 1024.1 |
| 20260510043845 | 44 | 328 | 0.0 | 0.0 | 0.00 | 0.00 | 0.00 | 84 | 1024.3 |
| 20260510043341 | 45 | 327 | 0.0 | 0.0 | 0.00 | 0.00 | 0.00 | 83 | 1024.1 |
| 20260510042839 | 45 | 335 | 0.0 | 0.0 | 0.00 | 0.00 | 0.00 | 83 | 1024.2 |
| 20260510042334 | 45 | 335 | 0.0 | 0.0 | 0.00 | 0.00 | 0.00 | 82 | 1024.1 |
| 20260510041831 | 45 | 334 | 0.0 | 0.0 | 0.00 | 0.00 | 0.00 | 81 | 1024.0 |
| 20260510041328 | 46 | 335 | 0.0 | 0.0 | 0.00 | 0.00 | 0.00 | 80 | 1023.8 |
| 20260510040826 | 46 | 334 | 0.0 | 0.0 | 0.00 | 0.00 | 0.00 | 80 | 1023.8 |
| 20260510040322 | 46 | 334 | 0.0 | 0.0 | 0.00 | 0.00 | 0.00 | 79 | 1023.7 |
| 20260510035817 | 47 | 334 | 0.0 | 0.0 | 0.00 | 0.00 | 0.00 | 78 | 1023.8 |
| 20260510035314 | 47 | 341 | 0.0 | 0.0 | 0.00 | 0.00 | 0.00 | 77 | 1023.6 |
| 20260510034809 | 48 | 326 | 0.0 | 0.0 | 0.00 | 0.00 | 0.00 | 77 | 1023.7 |
| 20260510034307 | 48 | 332 | 0.0 | 0.0 | 0.00 | 0.00 | 0.00 | 75 | 1023.7 |
| 20260510033804 | 48 | 330 | 0.0 | 0.0 | 0.00 | 0.00 | 0.00 | 74 | 1023.5 |
| 20260510033301 | 49 | 331 | 0.0 | 0.0 | 0.00 | 0.00 | 0.00 | 73 | 1023.4 |
| 20260510032758 | 49 | 329 | 0.0 | 0.0 | 0.00 | 0.00 | 0.00 | 72 | 1023.3 |
| 20260510032254 | 49 | 337 | 0.0 | 0.0 | 0.00 | 0.00 | 0.00 | 72 | 1023.2 |
| 20260510031750 | 50 | 323 | 0.0 | 1.0 | 0.00 | 0.00 | 0.00 | 73 | 1023.1 |
| 20260510031246 | 50 | 332 | 0.0 | 0.0 | 0.00 | 0.00 | 0.00 | 70 | 1023.2 |
| 20260510030744 | 50 | 329 | 0.0 | 0.0 | 0.00 | 0.00 | 0.00 | 71 | 1023.0 |
| 20260510030237 | 51 | 329 | 0.0 | 0.0 | 0.00 | 0.00 | 0.00 | 69 | 1023.0 |
| 20260510025734 | 52 | 341 | 0.0 | 0.0 | 0.00 | 0.00 | 0.00 | 66 | 1022.8 |
| 20260510025232 | 52 | 341 | 0.0 | 0.0 | 0.00 | 0.00 | 0.00 | 66 | 1022.8 |
| 20260510024728 | 53 | 340 | 0.0 | 0.0 | 0.00 | 0.00 | 0.00 | 67 | 1022.8 |
| 20260510024224 | 53 | 340 | 0.0 | 0.0 | 0.00 | 0.00 | 0.00 | 65 | 1022.7 |
| 20260510023720 | 54 | 341 | 0.0 | 0.0 | 0.00 | 0.00 | 0.00 | 64 | 1022.8 |
| 20260510023217 | 54 | 341 | 0.0 | 0.0 | 0.00 | 0.00 | 0.00 | 64 | 1022.6 |
| 20260510022714 | 55 | 341 | 0.0 | 0.0 | 0.00 | 0.00 | 0.00 | 64 | 1022.5 |
| 20260510022208 | 55 | 334 | 0.0 | 1.0 | 0.00 | 0.00 | 0.00 | 63 | 1022.5 |
| 20260510021703 | 56 | 332 | 0.0 | 0.0 | 0.00 | 0.00 | 0.00 | 60 | 1022.5 |
| 20260510021201 | 57 | 332 | 0.0 | 0.0 | 0.00 | 0.00 | 0.00 | 60 | 1022.4 |
| 20260510020656 | 57 | 323 | 0.0 | 0.0 | 0.00 | 0.00 | 0.00 | 59 | 1022.2 |
| 20260510020151 | 57 | 326 | 0.0 | 0.0 | 0.00 | 0.00 | 0.00 | 56 | 1022.3 |
| 20260510015647 | 58 | 332 | 0.0 | 0.0 | 0.00 | 0.00 | 0.00 | 57 | 1022.2 |
| 20260510015144 | 59 | 322 | 0.0 | 0.0 | 0.00 | 0.00 | 0.00 | 58 | 1022.3 |
| 20260510014644 | 59 | 301 | 1.0 | 1.0 | 0.00 | 0.00 | 0.00 | 54 | 1022.2 |
| 20260510014142 | 60 | 330 | 0.0 | 0.0 | 0.00 | 0.00 | 0.00 | 53 | 1022.2 |
| 20260510013637 | 60 | 326 | 0.0 | 0.0 | 0.00 | 0.00 | 0.00 | 50 | 1022.3 |
| 20260510013133 | 62 | 314 | 1.0 | 2.0 | 0.00 | 0.00 | 0.00 | 51 | 1022.2 |
| 20260510012633 | 64 | 329 | 0.0 | 1.0 | 0.00 | 0.00 | 0.00 | 47 | 1022.0 |
| 20260510012129 | 64 | 329 | 0.0 | 0.0 | 0.00 | 0.00 | 0.00 | 42 | 1022.2 |
| 20260510011628 | 65 | 327 | 0.0 | 2.0 | 0.00 | 0.00 | 0.00 | 44 | 1022.3 |
| 20260510011124 | 68 | 321 | 2.0 | 2.0 | 0.00 | 0.00 | 0.00 | 39 | 1022.2 |
| 20260510010620 | 69 | 326 | 0.0 | 2.0 | 0.00 | 0.00 | 0.00 | 34 | 1022.0 |
| 20260510010118 | 69 | 358 | 1.0 | 3.0 | 0.00 | 0.00 | 0.00 | 31 | 1022.0 |
| 20260510005613 | 69 | 316 | 1.0 | 2.0 | 0.00 | 0.00 | 0.00 | 32 | 1021.8 |
| 20260510005111 | 70 | 301 | 5.0 | 7.0 | 0.00 | 0.00 | 0.00 | 29 | 1022.1 |
| 20260510004609 | 70 | 331 | 1.0 | 5.0 | 0.00 | 0.00 | 0.00 | 29 | 1021.8 |
| 20260510004107 | 70 | 344 | 3.0 | 5.0 | 0.00 | 0.00 | 0.00 | 28 | 1022.0 |
| 20260510003603 | 69 | 326 | 0.0 | 5.0 | 0.00 | 0.00 | 0.00 | 29 | 1022.0 |
| 20260510003059 | 69 | 10 | 5.0 | 6.0 | 0.00 | 0.00 | 0.00 | 28 | 1022.0 |
| 20260510002555 | 70 | 354 | 0.0 | 6.0 | 0.00 | 0.00 | 0.00 | 29 | 1022.1 |
| 20260510002052 | 70 | 88 | 3.0 | 6.0 | 0.00 | 0.00 | 0.00 | 28 | 1021.7 |
| 20260510001549 | 71 | 319 | 2.0 | 3.0 | 0.00 | 0.00 | 0.00 | 27 | 1021.8 |
| 20260510001048 | 70 | 326 | 0.0 | 1.0 | 0.00 | 0.00 | 0.00 | 28 | 1021.8 |
| 20260510000548 | 69 | 1 | 3.0 | 5.0 | 0.00 | 0.00 | 0.00 | 29 | 1022.1 |
| 20260510000045 | 69 | 306 | 2.0 | 6.0 | 0.00 | 0.00 | 0.00 | 28 | 1021.8 |
| 20260509235541 | 69 | 4 | 1.0 | 3.0 | 0.00 | 0.00 | 0.00 | 29 | 1021.8 |
| 20260509235038 | 70 | 4 | 0.0 | 2.0 | 0.00 | 0.00 | 0.00 | 28 | 1021.7 |
| 20260509234534 | 71 | 287 | 2.0 | 3.0 | 0.00 | 0.00 | 0.00 | 27 | 1022.0 |
| 20260509234032 | 71 | 317 | 2.0 | 3.0 | 0.00 | 0.00 | 0.00 | 28 | 1022.0 |
| 20260509233529 | 70 | 344 | 1.0 | 3.0 | 0.00 | 0.00 | 0.00 | 28 | 1022.2 |
| 20260509233027 | 70 | 318 | 4.0 | 6.0 | 0.00 | 0.00 | 0.00 | 27 | 1022.0 |
| 20260509232523 | 70 | 0 | 1.0 | 6.0 | 0.00 | 0.00 | 0.00 | 28 | 1022.2 |
| 20260509232020 | 70 | 343 | 1.0 | 3.0 | 0.00 | 0.00 | 0.00 | 28 | 1022.1 |
| 20260509231516 | 69 | 347 | 1.0 | 5.0 | 0.00 | 0.00 | 0.00 | 28 | 1022.1 |
| 20260509231014 | 71 | 42 | 2.0 | 2.0 | 0.00 | 0.00 | 0.00 | 32 | 1021.8 |
| 20260509230511 | 70 | 305 | 0.0 | 3.0 | 0.00 | 0.00 | 0.00 | 28 | 1022.2 |
| 20260509230008 | 71 | 357 | 5.0 | 7.0 | 0.00 | 0.00 | 0.00 | 27 | 1022.2 |
| 20260509225503 | 70 | 331 | 2.0 | 7.0 | 0.00 | 0.00 | 0.00 | 30 | 1022.2 |
| 20260509224959 | 70 | 338 | 0.0 | 2.0 | 0.00 | 0.00 | 0.00 | 29 | 1022.4 |
| 20260509224454 | 69 | 323 | 0.0 | 2.0 | 0.00 | 0.00 | 0.00 | 27 | 1022.4 |
| 20260509223952 | 69 | 10 | 4.0 | 6.0 | 0.00 | 0.00 | 0.00 | 28 | 1022.4 |
| 20260509223448 | 69 | 331 | 4.0 | 6.0 | 0.00 | 0.00 | 0.00 | 30 | 1022.4 |
| 20260509222946 | 69 | 341 | 2.0 | 7.0 | 0.00 | 0.00 | 0.00 | 30 | 1022.4 |
| 20260509222441 | 69 | 307 | 6.0 | 8.0 | 0.00 | 0.00 | 0.00 | 29 | 1022.5 |
| 20260509221937 | 70 | 22 | 6.0 | 9.0 | 0.00 | 0.00 | 0.00 | 29 | 1022.5 |
| 20260509221434 | 69 | 20 | 7.0 | 8.0 | 0.00 | 0.00 | 0.00 | 30 | 1022.6 |
| 20260509220929 | 69 | 0 | 0.0 | 0.0 | 0.00 | 0.00 | 0.00 | 31 | 1022.7 |
| 20260509220426 | 68 | 27 | 4.0 | 7.0 | 0.00 | 0.00 | 0.00 | 30 | 1022.7 |
| 20260509215922 | 67 | 356 | 5.0 | 7.0 | 0.00 | 0.00 | 0.00 | 31 | 1022.8 |
| 20260509215418 | 67 | 333 | 1.0 | 6.0 | 0.00 | 0.00 | 0.00 | 33 | 1023.0 |
| 20260509214915 | 68 | 349 | 3.0 | 3.0 | 0.00 | 0.00 | 0.00 | 30 | 1022.7 |
| 20260509214412 | 68 | 300 | 2.0 | 6.0 | 0.00 | 0.00 | 0.00 | 30 | 1022.6 |
| 20260509213909 | 68 | 21 | 1.0 | 3.0 | 0.00 | 0.00 | 0.00 | 33 | 1022.7 |
| 20260509213405 | 67 | 6 | 2.0 | 5.0 | 0.00 | 0.00 | 0.00 | 33 | 1022.8 |
| 20260509212903 | 66 | 307 | 1.0 | 3.0 | 0.00 | 0.00 | 0.00 | 33 | 1023.0 |
| 20260509212400 | 66 | 308 | 4.0 | 9.0 | 0.00 | 0.00 | 0.00 | 33 | 1022.8 |
| 20260509211856 | 66 | 319 | 2.0 | 5.0 | 0.00 | 0.00 | 0.00 | 31 | 1023.0 |
| 20260509211352 | 65 | 0 | 3.0 | 5.0 | 0.00 | 0.00 | 0.00 | 34 | 1022.8 |
| 20260509210848 | 65 | 338 | 0.0 | 2.0 | 0.00 | 0.00 | 0.00 | 34 | 1023.0 |
| 20260509210346 | 66 | 356 | 0.0 | 1.0 | 0.00 | 0.00 | 0.00 | 34 | 1022.8 |
| 20260509205846 | 67 | 8 | 2.0 | 5.0 | 0.00 | 0.00 | 0.00 | 32 | 1023.0 |
| 20260509205340 | 67 | 16 | 3.0 | 6.0 | 0.00 | 0.00 | 0.00 | 32 | 1023.1 |
| 20260509204837 | 64 | 339 | 3.0 | 3.0 | 0.00 | 0.00 | 0.00 | 33 | 1023.2 |
| 20260509204334 | 64 | 18 | 5.0 | 7.0 | 0.00 | 0.00 | 0.00 | 33 | 1023.2 |
| 20260509203830 | 64 | 345 | 2.0 | 2.0 | 0.00 | 0.00 | 0.00 | 35 | 1023.2 |
| 20260509203327 | 64 | 358 | 3.0 | 3.0 | 0.00 | 0.00 | 0.00 | 34 | 1023.2 |
| 20260509202823 | 64 | 349 | 2.0 | 5.0 | 0.00 | 0.00 | 0.00 | 35 | 1023.1 |
| 20260509202320 | 66 | 355 | 3.0 | 6.0 | 0.00 | 0.00 | 0.00 | 34 | 1023.3 |
| 20260509201819 | 65 | 337 | 2.0 | 2.0 | 0.00 | 0.00 | 0.00 | 35 | 1023.3 |
| 20260509201316 | 65 | 355 | 3.0 | 6.0 | 0.00 | 0.00 | 0.00 | 34 | 1023.2 |
| 20260509200812 | 64 | 0 | 3.0 | 6.0 | 0.00 | 0.00 | 0.00 | 34 | 1023.3 |
| 20260509200308 | 66 | 21 | 4.0 | 7.0 | 0.00 | 0.00 | 0.00 | 33 | 1023.3 |
| 20260509195804 | 68 | 40 | 3.0 | 7.0 | 0.00 | 0.00 | 0.00 | 32 | 1023.3 |
| 20260509195259 | 69 | 349 | 2.0 | 3.0 | 0.00 | 0.00 | 0.00 | 33 | 1023.2 |
| 20260509194759 | 69 | 327 | 1.0 | 5.0 | 0.00 | 0.00 | 0.00 | 33 | 1023.1 |
| 20260509194255 | 67 | 226 | 2.0 | 5.0 | 0.00 | 0.00 | 0.00 | 32 | 1023.4 |
| 20260509193752 | 66 | 347 | 3.0 | 5.0 | 0.00 | 0.00 | 0.00 | 32 | 1023.4 |
| 20260509193247 | 66 | 317 | 1.0 | 3.0 | 0.00 | 0.00 | 0.00 | 32 | 1023.5 |
| 20260509192743 | 65 | 342 | 4.0 | 6.0 | 0.00 | 0.00 | 0.00 | 33 | 1023.5 |
| 20260509192238 | 65 | 328 | 2.0 | 3.0 | 0.00 | 0.00 | 0.00 | 35 | 1023.3 |
| 20260509191734 | 67 | 304 | 3.0 | 5.0 | 0.00 | 0.00 | 0.00 | 35 | 1023.5 |
| 20260509191231 | 64 | 338 | 1.0 | 2.0 | 0.00 | 0.00 | 0.00 | 39 | 1023.5 |
| 20260509190727 | 64 | 336 | 1.0 | 3.0 | 0.00 | 0.00 | 0.00 | 36 | 1023.6 |
| 20260509190224 | 64 | 316 | 2.0 | 7.0 | 0.00 | 0.00 | 0.00 | 35 | 1023.5 |
| 20260509185721 | 65 | 21 | 0.0 | 2.0 | 0.00 | 0.00 | 0.00 | 34 | 1023.6 |
| 20260509185217 | 63 | 349 | 3.0 | 3.0 | 0.00 | 0.00 | 0.00 | 37 | 1023.6 |
| 20260509184715 | 63 | 342 | 0.0 | 1.0 | 0.00 | 0.00 | 0.00 | 37 | 1023.7 |
| 20260509184212 | 64 | 139 | 3.0 | 6.0 | 0.00 | 0.00 | 0.00 | 36 | 1023.6 |
| 20260509183708 | 66 | 242 | 6.0 | 7.0 | 0.00 | 0.00 | 0.00 | 34 | 1023.8 |
| 20260509183203 | 66 | 339 | 3.0 | 6.0 | 0.00 | 0.00 | 0.00 | 34 | 1023.7 |
| 20260509182659 | 65 | 39 | 1.0 | 5.0 | 0.00 | 0.00 | 0.00 | 34 | 1023.6 |
| 20260509182157 | 64 | 17 | 1.0 | 5.0 | 0.00 | 0.00 | 0.00 | 38 | 1023.6 |
| 20260509181654 | 65 | 303 | 1.0 | 3.0 | 0.00 | 0.00 | 0.00 | 36 | 1023.7 |
| 20260509181152 | 65 | 301 | 1.0 | 3.0 | 0.00 | 0.00 | 0.00 | 34 | 1023.8 |
| 20260509180648 | 65 | 312 | 1.0 | 7.0 | 0.00 | 0.00 | 0.00 | 35 | 1023.8 |
| 20260509180144 | 64 | 200 | 4.0 | 6.0 | 0.00 | 0.00 | 0.00 | 37 | 1023.7 |
| 20260509175641 | 64 | 302 | 2.0 | 6.0 | 0.00 | 0.00 | 0.00 | 35 | 1024.0 |
| 20260509175138 | 65 | 2 | 0.0 | 3.0 | 0.00 | 0.00 | 0.00 | 38 | 1024.0 |
| 20260509174634 | 64 | 316 | 0.0 | 5.0 | 0.00 | 0.00 | 0.00 | 36 | 1023.8 |
| 20260509174134 | 62 | 321 | 1.0 | 2.0 | 0.00 | 0.00 | 0.00 | 37 | 1024.0 |
| 20260509173630 | 62 | 8 | 2.0 | 7.0 | 0.00 | 0.00 | 0.00 | 38 | 1023.7 |
| 20260509173126 | 63 | 168 | 4.0 | 6.0 | 0.00 | 0.00 | 0.00 | 35 | 1023.7 |
| 20260509172623 | 63 | 4 | 0.0 | 1.0 | 0.00 | 0.00 | 0.00 | 37 | 1023.8 |
| 20260509172119 | 64 | 315 | 4.0 | 5.0 | 0.00 | 0.00 | 0.00 | 34 | 1024.0 |
| 20260509171615 | 62 | 312 | 1.0 | 3.0 | 0.00 | 0.00 | 0.00 | 37 | 1024.0 |
| 20260509171111 | 62 | 318 | 0.0 | 2.0 | 0.00 | 0.00 | 0.00 | 40 | 1023.8 |
| 20260509170607 | 62 | 340 | 1.0 | 2.0 | 0.00 | 0.00 | 0.00 | 37 | 1024.1 |
| 20260509165602 | 61 | 7 | 3.0 | 5.0 | 0.00 | 0.00 | 0.00 | 37 | 1024.2 |
| 20260509165058 | 62 | 353 | 0.0 | 3.0 | 0.00 | 0.00 | 0.00 | 38 | 1024.2 |
| 20260509164555 | 63 | 315 | 2.0 | 3.0 | 0.00 | 0.00 | 0.00 | 35 | 1024.4 |
| 20260509164050 | 61 | 323 | 3.0 | 5.0 | 0.00 | 0.00 | 0.00 | 38 | 1024.3 |
| 20260509163549 | 61 | 244 | 1.0 | 1.0 | 0.00 | 0.00 | 0.00 | 36 | 1024.4 |
| 20260509163049 | 59 | 323 | 2.0 | 5.0 | 0.00 | 0.00 | 0.00 | 38 | 1024.2 |
| 20260509162546 | 60 | 358 | 0.0 | 5.0 | 0.00 | 0.00 | 0.00 | 39 | 1024.0 |
| 20260509162042 | 60 | 20 | 3.0 | 3.0 | 0.00 | 0.00 | 0.00 | 37 | 1024.0 |
| 20260509161539 | 60 | 18 | 0.0 | 2.0 | 0.00 | 0.00 | 0.00 | 37 | 1024.2 |
| 20260509161039 | 59 | 52 | 2.0 | 6.0 | 0.00 | 0.00 | 0.00 | 37 | 1024.1 |
| 20260509160535 | 59 | 178 | 3.0 | 3.0 | 0.00 | 0.00 | 0.00 | 40 | 1024.2 |
| 20260509160031 | 58 | 15 | 1.0 | 1.0 | 0.00 | 0.00 | 0.00 | 41 | 1024.2 |
| 20260509155527 | 58 | 55 | 3.0 | 6.0 | 0.00 | 0.00 | 0.00 | 41 | 1024.1 |
| 20260509155023 | 59 | 338 | 1.0 | 5.0 | 0.00 | 0.00 | 0.00 | 40 | 1024.1 |
| 20260509154519 | 58 | 28 | 0.0 | 5.0 | 0.00 | 0.00 | 0.00 | 42 | 1024.2 |
| 20260509154017 | 57 | 10 | 2.0 | 2.0 | 0.00 | 0.00 | 0.00 | 41 | 1024.3 |
| 20260509153514 | 57 | 26 | 1.0 | 5.0 | 0.00 | 0.00 | 0.00 | 44 | 1024.3 |
| 20260509153011 | 57 | 7 | 0.0 | 2.0 | 0.00 | 0.00 | 0.00 | 44 | 1024.5 |
| 20260509152506 | 57 | 286 | 0.0 | 3.0 | 0.00 | 0.00 | 0.00 | 44 | 1024.4 |
| 20260509152003 | 56 | 346 | 1.0 | 2.0 | 0.00 | 0.00 | 0.00 | 48 | 1024.4 |
| 20260509151500 | 56 | 37 | 1.0 | 2.0 | 0.00 | 0.00 | 0.00 | 45 | 1024.4 |
| 20260509150958 | 55 | 37 | 1.0 | 6.0 | 0.00 | 0.00 | 0.00 | 44 | 1024.3 |
| 20260509150455 | 55 | 206 | 3.0 | 5.0 | 0.00 | 0.00 | 0.00 | 46 | 1024.5 |
| 20260509145953 | 55 | 5 | 0.0 | 1.0 | 0.00 | 0.00 | 0.00 | 50 | 1024.6 |
| 20260509145448 | 54 | 309 | 1.0 | 2.0 | 0.00 | 0.00 | 0.00 | 53 | 1024.6 |
| 20260509144944 | 52 | 347 | 0.0 | 1.0 | 0.00 | 0.00 | 0.00 | 62 | 1024.5 |
| 20260509144441 | 51 | 358 | 0.0 | 1.0 | 0.00 | 0.00 | 0.00 | 63 | 1024.4 |
| 20260509143938 | 50 | 0 | 1.0 | 2.0 | 0.00 | 0.00 | 0.00 | 61 | 1024.5 |
| 20260509143435 | 49 | 357 | 0.0 | 0.0 | 0.00 | 0.00 | 0.00 | 65 | 1024.5 |
| 20260509142931 | 48 | 359 | 0.0 | 1.0 | 0.00 | 0.00 | 0.00 | 68 | 1024.5 |
| 20260509142428 | 46 | 353 | 0.0 | 0.0 | 0.00 | 0.00 | 0.00 | 71 | 1024.5 |
| 20260509141924 | 44 | 329 | 0.0 | 0.0 | 0.00 | 0.00 | 0.00 | 73 | 1024.5 |
| 20260509141421 | 43 | 338 | 0.0 | 1.0 | 0.00 | 0.00 | 0.00 | 75 | 1024.5 |
| 20260509140918 | 42 | 347 | 0.0 | 0.0 | 0.00 | 0.00 | 0.00 | 81 | 1024.3 |
| 20260509140414 | 41 | 344 | 0.0 | 2.0 | 0.00 | 0.00 | 0.00 | 82 | 1024.2 |
| 20260509135913 | 40 | 349 | 0.0 | 0.0 | 0.00 | 0.00 | 0.00 | 86 | 1024.3 |
| 20260509135410 | 38 | 323 | 0.0 | 1.0 | 0.00 | 0.00 | 0.00 | 86 | 1024.1 |
| 20260509134907 | 36 | 12 | 1.0 | 1.0 | 0.00 | 0.00 | 0.00 | 91 | 1024.3 |
| 20260509134404 | 35 | 327 | 0.0 | 0.0 | 0.00 | 0.00 | 0.00 | 94 | 1024.3 |
| 20260509133901 | 34 | 327 | 0.0 | 2.0 | 0.00 | 0.00 | 0.00 | 95 | 1024.4 |
| 20260509133357 | 33 | 333 | 0.0 | 0.0 | 0.00 | 0.00 | 0.00 | 95 | 1024.2 |
| 20260509132856 | 32 | 332 | 0.0 | 0.0 | 0.00 | 0.00 | 0.00 | 96 | 1024.2 |
| 20260509132354 | 32 | 333 | 0.0 | 0.0 | 0.00 | 0.00 | 0.00 | 96 | 1024.1 |
| 20260509131851 | 32 | 334 | 0.0 | 0.0 | 0.00 | 0.00 | 0.00 | 96 | 1024.0 |
| 20260509131348 | 31 | 334 | 0.0 | 0.0 | 0.00 | 0.00 | 0.00 | 96 | 1024.0 |
| 20260509130844 | 31 | 332 | 0.0 | 0.0 | 0.00 | 0.00 | 0.00 | 96 | 1023.8 |
| 20260509130340 | 31 | 333 | 0.0 | 0.0 | 0.00 | 0.00 | 0.00 | 96 | 1023.8 |
| 20260509125837 | 31 | 349 | 0.0 | 0.0 | 0.00 | 0.00 | 0.00 | 96 | 1023.7 |
| 20260509125333 | 31 | 330 | 0.0 | 0.0 | 0.00 | 0.00 | 0.00 | 95 | 1023.6 |
| 20260509124829 | 31 | 329 | 0.0 | 0.0 | 0.00 | 0.00 | 0.00 | 95 | 1023.4 |
| 20260509124326 | 31 | 342 | 0.0 | 0.0 | 0.00 | 0.00 | 0.00 | 95 | 1023.3 |
| 20260509123825 | 31 | 338 | 0.0 | 0.0 | 0.00 | 0.00 | 0.00 | 95 | 1023.3 |
| 20260509123322 | 31 | 333 | 0.0 | 0.0 | 0.00 | 0.00 | 0.00 | 95 | 1023.2 |
| 20260509122817 | 31 | 293 | 2.0 | 2.0 | 0.00 | 0.00 | 0.00 | 95 | 1023.3 |
| 20260509122314 | 31 | 342 | 0.0 | 2.0 | 0.00 | 0.00 | 0.00 | 95 | 1023.2 |
| 20260509121811 | 31 | 306 | 1.0 | 1.0 | 0.00 | 0.00 | 0.00 | 95 | 1023.2 |
| 20260509121308 | 31 | 330 | 0.0 | 0.0 | 0.00 | 0.00 | 0.00 | 95 | 1023.0 |
| 20260509120807 | 31 | 340 | 0.0 | 0.0 | 0.00 | 0.00 | 0.00 | 95 | 1023.1 |
| 20260509120304 | 31 | 350 | 0.0 | 0.0 | 0.00 | 0.00 | 0.00 | 94 | 1022.7 |
| 20260509115802 | 32 | 329 | 0.0 | 2.0 | 0.00 | 0.00 | 0.00 | 94 | 1022.8 |
| 20260509115258 | 32 | 325 | 0.0 | 0.0 | 0.00 | 0.00 | 0.00 | 94 | 1022.8 |
| 20260509114756 | 32 | 5 | 0.0 | 1.0 | 0.00 | 0.00 | 0.00 | 94 | 1022.7 |
| 20260509114255 | 32 | 329 | 0.0 | 1.0 | 0.00 | 0.00 | 0.00 | 93 | 1022.6 |
| 20260509113754 | 32 | 351 | 0.0 | 0.0 | 0.00 | 0.00 | 0.00 | 93 | 1023.0 |
| 20260509113250 | 32 | 332 | 0.0 | 0.0 | 0.00 | 0.00 | 0.00 | 94 | 1022.8 |
| 20260509112747 | 32 | 345 | 0.0 | 0.0 | 0.00 | 0.00 | 0.00 | 93 | 1022.8 |
| 20260509112244 | 32 | 333 | 0.0 | 1.0 | 0.00 | 0.00 | 0.00 | 93 | 1022.7 |
| 20260509111742 | 32 | 339 | 0.0 | 1.0 | 0.00 | 0.00 | 0.00 | 93 | 1022.7 |
| 20260509111238 | 32 | 333 | 0.0 | 0.0 | 0.00 | 0.00 | 0.00 | 93 | 1022.4 |
| 20260509110735 | 32 | 332 | 0.0 | 0.0 | 0.00 | 0.00 | 0.00 | 93 | 1022.7 |
| 20260509110232 | 32 | 342 | 0.0 | 0.0 | 0.00 | 0.00 | 0.00 | 93 | 1022.6 |
| 20260509105730 | 32 | 322 | 0.0 | 1.0 | 0.00 | 0.00 | 0.00 | 93 | 1022.4 |
| 20260509105227 | 32 | 335 | 0.0 | 0.0 | 0.00 | 0.00 | 0.00 | 93 | 1022.7 |
| 20260509104724 | 32 | 348 | 0.0 | 0.0 | 0.00 | 0.00 | 0.00 | 93 | 1022.7 |
| 20260509104221 | 32 | 321 | 1.0 | 1.0 | 0.00 | 0.00 | 0.00 | 93 | 1022.5 |
| 20260509103719 | 32 | 344 | 0.0 | 0.0 | 0.00 | 0.00 | 0.00 | 92 | 1023.0 |
| 20260509103216 | 32 | 325 | 0.0 | 1.0 | 0.00 | 0.00 | 0.00 | 92 | 1022.6 |
| 20260509102714 | 32 | 325 | 0.0 | 1.0 | 0.00 | 0.00 | 0.00 | 92 | 1022.8 |
| 20260509102211 | 32 | 344 | 0.0 | 0.0 | 0.00 | 0.00 | 0.00 | 92 | 1022.8 |
| 20260509101707 | 32 | 342 | 0.0 | 0.0 | 0.00 | 0.00 | 0.00 | 92 | 1022.6 |
| 20260509101204 | 32 | 343 | 0.0 | 0.0 | 0.00 | 0.00 | 0.00 | 91 | 1022.7 |
| 20260509100701 | 32 | 342 | 0.0 | 0.0 | 0.00 | 0.00 | 0.00 | 91 | 1022.6 |
| 20260509100158 | 33 | 342 | 0.0 | 0.0 | 0.00 | 0.00 | 0.00 | 91 | 1022.7 |
| 20260509095655 | 33 | 338 | 0.0 | 0.0 | 0.00 | 0.00 | 0.00 | 90 | 1022.6 |
| 20260509095153 | 33 | 342 | 0.0 | 0.0 | 0.00 | 0.00 | 0.00 | 90 | 1022.4 |
| 20260509094649 | 33 | 340 | 0.0 | 0.0 | 0.00 | 0.00 | 0.00 | 90 | 1022.6 |
| 20260509094146 | 33 | 338 | 0.0 | 0.0 | 0.00 | 0.00 | 0.00 | 89 | 1022.4 |
| 20260509093644 | 33 | 326 | 0.0 | 0.0 | 0.00 | 0.00 | 0.00 | 89 | 1022.5 |
| 20260509093141 | 33 | 327 | 0.0 | 0.0 | 0.00 | 0.00 | 0.00 | 89 | 1022.4 |
| 20260509092639 | 33 | 322 | 0.0 | 0.0 | 0.00 | 0.00 | 0.00 | 89 | 1022.5 |
| 20260509092137 | 34 | 342 | 0.0 | 0.0 | 0.00 | 0.00 | 0.00 | 89 | 1022.5 |
| 20260509091635 | 34 | 341 | 0.0 | 0.0 | 0.00 | 0.00 | 0.00 | 87 | 1022.3 |
| 20260509091131 | 34 | 340 | 0.0 | 0.0 | 0.00 | 0.00 | 0.00 | 87 | 1022.3 |
| 20260509090629 | 34 | 337 | 0.0 | 0.0 | 0.00 | 0.00 | 0.00 | 88 | 1022.2 |
| 20260509090126 | 34 | 341 | 0.0 | 0.0 | 0.00 | 0.00 | 0.00 | 86 | 1022.4 |
| 20260509085623 | 35 | 342 | 0.0 | 0.0 | 0.00 | 0.00 | 0.00 | 85 | 1022.1 |
| 20260509085119 | 35 | 335 | 0.0 | 0.0 | 0.00 | 0.00 | 0.00 | 85 | 1022.1 |
| 20260509084616 | 35 | 347 | 0.0 | 0.0 | 0.00 | 0.00 | 0.00 | 84 | 1022.0 |
| 20260509084113 | 35 | 349 | 0.0 | 1.0 | 0.00 | 0.00 | 0.00 | 85 | 1022.2 |
| 20260509083611 | 35 | 351 | 1.0 | 1.0 | 0.00 | 0.00 | 0.00 | 84 | 1022.1 |
| 20260509083107 | 36 | 330 | 0.0 | 1.0 | 0.00 | 0.00 | 0.00 | 85 | 1022.2 |
| 20260509082605 | 36 | 0 | 0.0 | 0.0 | 0.00 | 0.00 | 0.00 | 83 | 1022.3 |
| 20260509082101 | 36 | 337 | 0.0 | 2.0 | 0.00 | 0.00 | 0.00 | 84 | 1022.0 |
| 20260509081559 | 37 | 4 | 1.0 | 1.0 | 0.00 | 0.00 | 0.00 | 83 | 1022.1 |
| 20260509081055 | 37 | 348 | 0.0 | 0.0 | 0.00 | 0.00 | 0.00 | 82 | 1022.2 |
| 20260509080553 | 37 | 336 | 0.0 | 0.0 | 0.00 | 0.00 | 0.00 | 82 | 1021.7 |
| 20260509080051 | 38 | 327 | 0.0 | 1.0 | 0.00 | 0.00 | 0.00 | 81 | 1021.7 |
| 20260509075548 | 38 | 346 | 0.0 | 0.0 | 0.00 | 0.00 | 0.00 | 78 | 1021.6 |
| 20260509075046 | 39 | 332 | 0.0 | 0.0 | 0.00 | 0.00 | 0.00 | 79 | 1021.8 |
| 20260509074543 | 40 | 332 | 0.0 | 0.0 | 0.00 | 0.00 | 0.00 | 75 | 1021.6 |
| 20260509074039 | 41 | 334 | 0.0 | 0.0 | 0.00 | 0.00 | 0.00 | 73 | 1021.7 |
| 20260509073536 | 41 | 339 | 0.0 | 1.0 | 0.00 | 0.00 | 0.00 | 71 | 1021.5 |
| 20260509073033 | 41 | 356 | 1.0 | 1.0 | 0.00 | 0.00 | 0.00 | 71 | 1021.5 |
| 20260509072529 | 40 | 342 | 0.0 | 1.0 | 0.00 | 0.00 | 0.00 | 72 | 1021.3 |
| 20260509072026 | 42 | 339 | 0.0 | 0.0 | 0.00 | 0.00 | 0.00 | 70 | 1021.3 |
| 20260509071523 | 42 | 299 | 0.0 | 2.0 | 0.00 | 0.00 | 0.00 | 67 | 1021.2 |
| 20260509071020 | 42 | 351 | 0.0 | 0.0 | 0.00 | 0.00 | 0.00 | 69 | 1021.3 |
| 20260509070518 | 42 | 298 | 1.0 | 2.0 | 0.00 | 0.00 | 0.00 | 70 | 1021.1 |
| 20260509070014 | 41 | 358 | 0.0 | 2.0 | 0.00 | 0.00 | 0.00 | 71 | 1021.3 |
| 20260509065509 | 41 | 2 | 0.0 | 1.0 | 0.00 | 0.00 | 0.00 | 71 | 1021.2 |
| 20260509065005 | 40 | 337 | 0.0 | 0.0 | 0.00 | 0.00 | 0.00 | 73 | 1020.9 |
| 20260509064503 | 40 | 336 | 0.0 | 0.0 | 0.00 | 0.00 | 0.00 | 78 | 1021.2 |
| 20260509064001 | 40 | 340 | 0.0 | 0.0 | 0.00 | 0.00 | 0.00 | 77 | 1021.4 |
| 20260509063456 | 40 | 284 | 1.0 | 1.0 | 0.00 | 0.00 | 0.00 | 76 | 1021.3 |
| 20260509062954 | 40 | 319 | 0.0 | 0.0 | 0.00 | 0.00 | 0.00 | 76 | 1021.5 |
| 20260509062451 | 40 | 332 | 0.0 | 0.0 | 0.00 | 0.00 | 0.00 | 79 | 1021.4 |
| 20260509061948 | 40 | 331 | 0.0 | 0.0 | 0.00 | 0.00 | 0.00 | 77 | 1021.4 |
| 20260509061445 | 40 | 331 | 0.0 | 0.0 | 0.00 | 0.00 | 0.00 | 77 | 1021.3 |
| 20260509060943 | 41 | 331 | 0.0 | 0.0 | 0.00 | 0.00 | 0.00 | 77 | 1021.5 |
| 20260509060440 | 41 | 331 | 0.0 | 0.0 | 0.00 | 0.00 | 0.00 | 78 | 1021.3 |
| 20260509055935 | 41 | 333 | 0.0 | 0.0 | 0.00 | 0.00 | 0.00 | 76 | 1021.4 |
| 20260509055431 | 42 | 330 | 0.0 | 0.0 | 0.00 | 0.00 | 0.00 | 76 | 1021.3 |
| 20260509054927 | 42 | 326 | 0.0 | 0.0 | 0.00 | 0.00 | 0.00 | 75 | 1021.2 |